Weather in Mehrobod

Tajikistan     40°09′44″N   69°29′45″E
temp.,
°C
wind,
m/s
gust,
m/s
humid.,
%
clouds,
%
prec.,
mm/h
press.,
hPa
HPBL,
m
11 april, sun
sun1123:00+17wsw33390 0.0 101732
02:00+15w22440 0.0 101718
05:00+14w33440 0.0 101824
08:00+15wnw57490 0.0 1019390
11:00+17wnw56430 0.0 1019877
14:00+19wnw56300 0.0 10181121
17:00+17wnw453226 0.0 10181030
20:00+14wnw224318 0.0 101825
12 april, mon
mon1223:00+12w455964 0.1 1019100
02:00+10wnw335887 0.0 101948
05:00+8w346932 0.1 1021111
08:00+10w33525 0.0 1021337
11:00+14wnw32425 0.1 1020572
14:00+18wnw323993 0.1 1018885
17:00+17wnw4443100 0.2 1018621
20:00+13w336297 0.2 101967
13 april, tue
tue1323:00+13w3362100 0.2 101944
02:00+13wnw3360100 0.0 101966
05:00+12w3457100 0.0 101996
08:00+14w3447100 0.0 1021263
11:00+17e4443100 0.0 1021429
14:00+20ne443592 0.0 10201258
17:00+20n333683 0.0 10201951
20:00+17ene354767 0.1 1020108
14 april, wed
wed1423:00+15ese22505 0.1 101911
02:00+15e44505 0.0 101845
05:00+14e59554 0.0 1018154
08:00+17e7114910 0.0 1017640
11:00+21e810375 0.0 10161095
14:00+24e88303 0.0 10131197
17:00+24e56270 0.0 10111071
20:00+20ne33350 0.0 101125
15 april, thu
thu1523:00+18nne004394 0.0 101111
02:00+16wnw4446100 0.0 101163
05:00+14wnw334794 0.0 101248
08:00+16wnw2338100 0.0 1013234
11:00+20wnw333159 0.0 1012584
14:00+23wnw443194 0.0 1011884
17:00+23wnw4532100 0.0 10111103
20:00+19wnw3337100 0.0 101357